Location: Dehesa de la Cepeda
(40.6574°N, 4.3013°W)
Time: 09:34:26
(UTC+00:00)

Transit 2A Rocket - Pass Details

Date: 12 August 2021
Orbit: 586 x 917 km, 66.7° (Epoch: 24 September)

Event Time Altitude Azimuth Distance (km) Brightness Sun altitude
Rises 21:30:16 0° 319° (NW) 3,378 9.9 -21.8°
Reaches altitude 10° 21:32:55 10° 310° (NW) 2,486 8.8 -22.2°
Maximum altitude 21:37:54 30° 250° (WSW) 1,525 6.7 -22.8°
Enters shadow 21:41:15 18° 203° (SSW) 2,050 7.0 -23.3°
Drops below altitude 10° 21:43:04 10° 191° (SSW) 2,586 - -23.5°
Sets 21:45:54 0° 182° (S) 3,535 - -23.9°
